Regional Weather Roundup
Issued by NWS

Home | Current Version | Previous Version | Text Only | Print | Product List | Glossary Off
Versions: 1 2 3 4 5 6 7 8 9 10 11 12 13 14 15 16 17 18 19 20 21 22 23 24 25 26 27 28 29 30 31 32 33 34 35 36 37 38 39 40 41 42 43 44 45 46 47 48 49 50

000
ASUS43 KLMK 020302
RWRKY
KENTUCKY REGIONAL WEATHER ROUNDUP
NATIONAL WEATHER SERVICE LOUISVILLE KY
1100 PM EDT FRI AUG 01 2014

NOTE "FAIR" INDICATES FEW OR NO CLOUDS BELOW 12,000 FEET
WITH NO SIGNIFICANT WEATHER AND/OR OBSTRUCTIONS TO VISIBILITY.

KYZ001>023-026-027-061>063-070>075-020400-
WESTERN AND SOUTH CENTRAL KENTUCKY

CITY           SKY/WX    TMP DP  RH WIND       PRES   REMARKS
PADUCAH        PTCLDY    74  65  73 CALM      30.05R
HENDERSON      MOCLDY   N/A N/A N/A MISG        N/A
OWENSBORO      MOCLDY    77  64  63 NE5       30.06R
HOPKINSVILLE   PTCLDY    75  59  58 NW6       30.04R
BOWLING GREEN  CLEAR     72  57  59 CALM      30.06R
GLASGOW        CLEAR     67  59  75 CALM      30.06R
$$

KYZ024-025-028>034-038-045-046-053-020400-
NORTH CENTRAL KENTUCKY

CITY           SKY/WX    TMP DP  RH WIND       PRES   REMARKS
LOUISVILLE/SDF PTCLDY    77  59  53 CALM      30.05S
LOUISVILLE/LOU CLEAR     74  59  59 CALM      30.06S
FORT KNOX      CLEAR     67  60  76 CALM      30.06R
$$

KYZ035>037-039>044-047>052-055>060-089>105-020400-
NORTHEAST KENTUCKY

CITY           SKY/WX    TMP DP  RH WIND       PRES   REMARKS
LEXINGTON      MOCLDY    72  60  66 NE3       30.08S
COVINGTON      PTCLDY    71  59  65 CALM      30.08R
FRANKFORT      CLEAR     67  61  81 NW3       30.06S
$$

KYZ054-064>069-076>088-106>120-020400-
SOUTHEAST KENTUCKY

CITY           SKY/WX    TMP DP  RH WIND       PRES   REMARKS
JACKSON        LGT RAIN  68  65  90 VRB5G16   30.10S FOG
LONDON         MOCLDY    72  63  73 S7        30.10R
SOMERSET       CLEAR     70  66  88 CALM      30.08S
MIDDLESBORO    MOCLDY    70  65  84 CALM      30.10R
MONTICELLO     CLEAR     66  64  93 CALM      30.08S
$$




USA.gov is the U.S. government's official web portal to all federal, state and local government web resources and services.